www.pogodaiklimat.ru

Погода и климат >> Архив погоды >> Россия >> Забайкальский край >> Чара


АРХИВ ПОГОДЫ в Чаре

Время (UTC), дата Ветер
(напр.,м/с)
 
Видим.   Явления Облачность Т
(С)
Тd
(С)
f
(%)
Тe
(С)
Тes
(С)
Комфортность P
(гПа)
Po
(гПа)
Тmin
(С)
Tmax
(С)
R
(мм)
R24
(мм)
S
(см)
00 13.06 В 3 50 км 4/3 1000 м
[Cu Sc Ci fib]
+12.5 +1.0 45 +11 +15 1012.9 931.2 +8.1
03 13.06 ЮВ 2 50 км 3/3 1500 м
[Cu med, cong Ci fib]
+15.0 -1.0 33 +15 +25 1011.3 930.4
06 13.06 В 2 50 км 6/3 1500 м
[Cu hum Ci fib]
+17.5 -0.3 30 +18 +26 1009.6 929.5
09 13.06 В 2 50 км 6/1 1500 м
[Cu hum Ac lent Ci fib]
+17.4 -0.9 29 +18 +21 1009.1 929.0
12 13.06 СВ 2 50 км 9/5 1500 м
[Cb cap Ac trans Ci fib]
+15.2 +2.0 41 +15 +15 1009.9 929.2 +17.9
15 13.06 штиль 0 50 км 9/5 1500 м
[Cb cap Ac trans]
+12.1 +2.5 52 +12 +12 1011.2 929.6
18 13.06 С 2 50 км 8/3 1500 м
[Sc Ac trans Ci fib]
+6.7 +1.9 71 +5 +5 1013.8 930.4
21 13.06 штиль 0 50 км 6/4 1500 м
[Cu Sc Ci fib]
+7.0 +3.9 81 +6 +7 1014.3 931.0
00 14.06 Ю 1 50 км 4/3 1500 м
[Cu Sc Ci fib]
+15.2 +2.3 42 +16 +22 1011.6 930.8 +4.1
03 14.06 ЮЗ 2 50 км 4/3 1500 м
[Cu med, cong Ci fib]
+19.4 +1.9 31 +20 +30 1009.0 929.5
06 14.06 ЮВ 2 50 км 3/3 1500 м
[Cu med, cong]
+22.4 +2.4 27 +22 +31 комфорт 1006.4 927.8
09 14.06 В 2 50 км 4/3 1500 м
[Cu Sc Ci fib]
+23.8 +2.3 24 +23 +26 комфорт 1004.9 926.8
12 14.06 СВ 1 50 км 6/3 1500 м
[Sc Ci fib]
+20.4 +4.2 34 +22 +22 комфорт 1005.7 926.7 +23.8
15 14.06 Ю 1 50 км 8/0
[Ci fib]
+9.0 +5.9 81 +8 +8 1009.7 927.4
18 14.06 штиль 0 50 км 8/0
[Ci fib]
+6.2 +4.2 87 +5 +5 1011.0 927.8
21 14.06 З 1 50 км 6/3 1500 м
[Sc Ci fib]
+4.9 +3.5 91 +4 +4 1011.3 927.7
00 15.06 ЮВ 1 50 км 4/0
[Ci fib]
+17.7 +6.1 46 +19 +27 1006.6 926.9 +3.3
03 15.06 ЮЗ 3 50 км 4/3 1500 м
[Cu med, cong Ci fib]
+24.9 +6.5 31 +25 +33 комфорт 1002.5 925.0
06 15.06 ЮЗ 3 50 км 6/6 1500 м
[Cb cap]
+28.6 +6.0 24 +27 +32 жарко 999.7 923.3
09 15.06 С 2
{10}
50 км гроза без осадков 8/8 1500 м
[Cb cap]
+25.8 +6.9 30 +26 +27 жарко 1000.5 923.3
12 15.06 Ю 3
{14}
50 км гроза без осадков 9/9 1500 м
[Cb cap]
+22.2 +5.3 33 +23 +23 комфорт 1003.8 925.4 +29.2
15 15.06 С 1 50 км {гроза} 6/0
[Ac lent Ci fib]
+12.6 +8.5 76 +13 +13 1007.0 925.9
18 15.06 Ю 1 50 км {гроза} ясно +7.4 +5.8 90 +6 +6 1009.2 926.5
21 15.06 З 1 50 км 4/1 1500 м
[Sc Ac trans Ci fib]
+8.8 +6.9 88 +8 +9 1009.2 926.9
00 16.06 СЗ 1 50 км 4/0
[Ac trans Ci fib]
+19.6 +9.3 51 +22 +29 комфорт 1005.4 926.4 +5.4
03 16.06 ЮЗ 2 50 км 8/3 1500 м
[Cb cap Ac trans Ci fib]
+26.0 +10.8 39 +27 +34 жарко 1001.1 924.0
06 16.06 З 2 20 км дым 8/4 1500 м
[Cb calv Ci fib]
+27.5 +8.0 29 +27 +34 жарко 1001.3 924.5
09 16.06 В 6-11
{11}
50 км 9/8 1500 м
[Cb cap Ci fib]
+27.6 +6.2 26 +27 +27 жарко 1000.9 924.1
12 16.06 С 4
{11}
50 км 10/9 1500 м
[Cb cap Ci fib]
+20.3 +10.7 54 +22 +22 комфорт 1005.2 926.4 +28.4
15 16.06 В 1 50 км 8/3 1500 м
[Cb cap Ac lent Ci fib]
+15.8 +10.1 69 +17 +17 1007.5 927.3
18 16.06 штиль 0 50 км 4/0
[Ac lent Ci fib]
+8.9 +7.3 90 +8 +8 1010.6 928.3
21 16.06 З 1 50 км 8/0
[Ci fib]
+8.8 +7.6 92 +8 +9 1011.4 928.9
00 17.06 штиль 0 50 км 6/0
[Ci sp]
+14.5 +10.6 77 +14 +23 1010.0 929.3 +6.7
03 17.06 В 2 50 км 4/3 1500 м
[Cu med, cong Ci fib]
+24.6 +9.2 38 +25 +35 комфорт 1005.8 928.0
06 17.06 СЗ 1 50 км 4/3 1500 м
[Cu med, cong Ci fib]
+28.0 +6.1 25 +27 +38 жарко 1003.3 926.5
09 17.06 В 3 50 км 3/3 1500 м
[Cu med, cong]
+28.5 +5.6 23 +27 +30 жарко 1002.0 925.4
12 17.06 СЗ 1 50 км 6/4 1500 м
[Cb cap Ci fib]
+19.7 +12.4 63 +22 +22 комфорт 1004.7 925.8 +29.1
15 17.06 СВ 1 50 км 6/3 1500 м
[Sc Ci fib]
+13.7 +9.1 74 +14 +14 1007.5 926.7
18 17.06 З 1 50 км 3/1 1500 м
[Sc Ci fib]
+7.9 +6.2 89 +7 +7 1010.2 927.5
21 17.06 З 1 50 км 3/0
[Ci fib]
+8.2 +6.4 88 +7 +8 1010.5 927.9
00 18.06 С 1 50 км 3/3 1500 м
[Cu med, cong]
+20.9 +8.8 46 +23 +29 комфорт 1006.3 927.5 +5.9
03 18.06 СВ 1 50 км 4/4 1500 м
[Cu med, cong]
+26.3 +7.4 30 +26 +36 жарко 1003.5 926.2
06 18.06 В 2 50 км 4/4 1500 м
[Cu med, cong]
+29.5 +6.4 23 +28 +36 жарко 1000.8 924.5
09 18.06 В 4 50 км 3/3 1500 м
[Cu med, cong]
+29.5 +3.7 19 +27 +30 жарко 999.8 923.5
12 18.06 В 1 20 км дым 4/3 1500 м
[Sc Ci fib]
+25.3 +3.1 24 +24 +25 комфорт 1001.9 924.4 +29.9
15 18.06 С 2 50 км 3/3 1500 м
[Sc Ci fib]
+12.5 +6.9 69 +12 +12 1007.2 926.1
18 18.06 СЗ 1 50 км 4/0
[Ci fib]
+8.7 +4.7 76 +8 +8 1010.1 927.6
21 18.06 ЮЗ 1 50 км 6/0
[Ci fib]
+10.9 +6.8 76 +11 +12 1010.1 928.4
00 19.06 З 1 50 км 8/3 1500 м
[Cu med, cong Ci fib]
+20.9 +9.8 49 +24 +29 комфорт 1007.7 928.8 +6.4
03 19.06 СВ 3 20 км дым 8/4 1500 м
[Cb cap Ci fib]
+25.9 +6.1 28 +25 +32 комфорт 1005.6 928.1
06 19.06 В 4 50 км 8/4 1500 м
[Cb cap Ci fib]
+26.8 +7.0 28 +26 +31 жарко 1003.8 926.6
09 19.06 В 6-10
{14}
50 км 6/4 1500 м
[Cb cap Ci fib]
+25.2 +6.0 29 +25 +26 комфорт 1003.6 926.0
12 19.06 СВ 3
{11}
50 км 6/3 1500 м
[Cb cap Ac trans Ci fib]
+20.0 +8.0 46 +21 +21 комфорт 1006.5 927.5 +27.7
15 19.06 СВ 1 50 км 9/5 1500 м
[Cb cap Ac trans Ci fib]
+16.2 +9.3 64 +17 +17 1009.1 928.9
18 19.06 С 1 50 км в посл. час ливневой дождь 9/8 1500 м
[Cb cap Ac trans Ci fib]
+13.8 +11.7 87 +14 +14 1010.7 929.8

 

Местоположение метеостанции Чара (Забайкальский край, Россия): широта 56.90 долгота 118.20 высота над уровнем моря 711 м.

В архиве по умолчанию представлена погода в Чаре за последнюю неделю. Архивные данные за месяц целиком и за предыдущие месяцы, начиная с января 2011 года, Вы можете получить, выбрав интересующий диапазон дат из раскрывающегося списка и нажав кнопку "Ввод!".


*Определитесь, кто Вы:
робот инопланетянин человек

Внимание! Время в таблицах - всемирное. Для получения местного времени необходимо прибавить поправку, которая равна 9 ч.

Смотрите также архив погоды в соседних городах и на ближайших метеорологических станциях:

Погода в Удокане (Забайкальский край, Россия) (18 км)
Погода в Большой Лепринде (Забайкальский край, Россия) (46 км)
Погода в Усть-Нюкже (Амурская область, Россия) (204 км)
Погода в Таксимо (Бурятия, Россия) (216 км)
Погода в Средней Олекме (Забайкальский край, Россия) (217 км)
Погода в Перевозе (Иркутская область, Россия) (246 км)
Погода в Тяне (Якутия, Россия) (252 км)
Погода в Мамакане (Иркутская область, Россия) (272 км)
Погода в Усть-Каренге (Забайкальский край, Россия) (295 км)
Погода в Тупике (Забайкальский край, Россия) (295 км)

Пояснения к столбцам:

Ветер - указаны скорость ветра в м/с - средняя за 10 мин, порывы в срок и между сроками (в фигурных скобках) и направление, откуда дует ветер: С - северный, СВ - северо-восточный, В - восточный, ЮВ - юго-восточный, Ю - южный, ЮЗ - юго-западный, З - западный, СЗ - северо-западный.
Видимость - горизонтальная дальность видимости в метрах или километрах. При видимости от 1 до 10 км при отсутствии осадков обычно наблюдается дымка, при ухудшении видимости до 1 км и менее - туман. В сухую погоду видимость может ухудшаться дымом, пылью или мглою.
Явления - указаны атмосферные явления, наблюдавшиеся в срок или в последний час перед сроком; фигурными скобками обозначены явления, наблюдавшиеся между сроками (за 1-3 часа до срока); квадратными скобками обозначены град или гололедные отложения с указанием их диаметра в мм.
Облачность - указаны через наклонную черту общая и нижняя облачность в баллах и высота нижней границы облаков в метрах; квадратными скобками обозначены формы облаков: Ci - перистые, Cs - перисто-слоистые, Cc - перисто-кучевые, Ac - высококучевые, As - высокослоистые, Sc - слоисто-кучевые, Ns - слоисто-дождевые, Cu - кучевые, Cb - кучево-дождевые. Подробнее классификацию облаков см. в Атласе облаков (PDF).
T - Температура воздуха - температура, измеренная на высоте 2 м над землей.
Td - Температура точки росы - температура, при понижении до которой содержащийся в воздухе водяной пар достигнет насыщения.
f - Относительная влажность воздуха - влажноcть воздуха, измеренная на высоте 2 м над землей.
Te - Эффективная температура - температура, которую ощущает одетый по сезону человек в тени. Характеристика душности погоды. При расчете учитывается влияние влажности воздуха и скорости ветра на теплоощущения человека.
Tes - Эффективная температура на солнце - температура, которую ощущает человек, с поправкой на солнечный нагрев. Характеристика знойности погоды. Зависит от высоты солнца над горизонтом, облачности и скорости ветра. Ночью, в пасмурную погоду, а также при ветре 12 м/с и более поправка равна нулю.
P - Атмосферное давление - приведенное к уровню моря атмосферное давление.
Po - Атмосферное давление - измеренное на уровне метеостанции атмосферное давление.
Tmin - Минимальная температура - минимум температуры воздуха на высоте 2 м над землей.
Tmax - Максимальная температура - максимум температуры воздуха на высоте 2 м над землей.
R - Количество осадков - Количество выпавших осадков за период времени, мм. При наведении курсора мыши на число - период времени, за который выпало указанное количество осадков.
R24 - Количество осадков - Количество выпавших осадков за 24 часа, мм.
S - Снежный покров - Высота снежного покрова, см. При наведении курсора мыши на число - состояние снежного покрова и степень покрытия местности в баллах.